Zurück zum Katalog

COSMOS 2061

AktivMilitärPO
NORAD 20527·PAYLOAD·🇷🇺 Russia

Gestartet Mar 20, 1990 von Plesetsk Cosmodrome

Loading…

Nächste Überflüge (nächste 24 Stunden)

TLE

AktuellSource: Space-Track

Epoche: Sep 14, 2026, 12:45 UTC

1 20527U 90023A   26257.53180429  .00000033  00000-0  19369-4 0  9992
2 20527  82.9332 103.4500 0031509  19.3087   7.9049 13.72390355827064

Verfolge COSMOS 2061 in Echtzeit mit AllMySat

Download on the App Store